Miscellaneous Local Product
Issued by NWS Hastings, NE

Home | Current Version | Previous Version | Graphics & Text | Print | Product List | Glossary On
Versions: 1 2 3 4 5 6 7 8 9 10 11 12 13 14 15 16 17 18 19 20 21 22 23 24 25 26 27 28 29 30 31 32 33 34 35 36 37 38 39 40 41 42 43 44 45 46 47 48 49 50
000
AXUS43 KGID 212002
MISGRI

GID CWA HOURLY WEATHER ROUNDUP
NATIONAL WEATHER SERVICE HASTINGS NE
300 PM CDT SUN SEP 21 2014

NOTE: "FAIR" INDICATES FEW OR NO CLOUDS BELOW 12,000 FEET WITH NO
SIGNIFICANT WEATHER AND/OR OBSTRUCTIONS TO VISIBILITY.

...SOUTH CENTRAL NEBRASKA...

CITY           SKY/WX    TMP DP  RH WIND       PRES   REMARKS
GRAND ISLAND   SUNNY     75  41  29 N16G25    30.26F
HASTINGS       SUNNY     74  41  30 N10       30.26F
KEARNEY        SUNNY     73  39  29 N15G21    30.27F
ORD            SUNNY     72  41  32 VRB6G20   30.26F
YORK           SUNNY     72  48  43 N13G28    30.25F
AURORA         SUNNY     74  38  27 N12G17    30.25F
LEXINGTON      SUNNY     74  41  29 N7        30.28F
HOLDREGE       SUNNY     72  40  30 NW7       30.27F
HEBRON         SUNNY     75  37  24 N13       30.23F

...NEBRASKA PANHANDLE...

CITY           SKY/WX    TMP DP  RH WIND       PRES   REMARKS
CHADRON        SUNNY     75  40  28 E5        30.28F
ALLIANCE       MOSUNNY   74  38  27 E6        30.31F
SCOTTSBLUFF    SUNNY     74  39  28 SE13      30.31F
SIDNEY         MOSUNNY   73  38  27 S8        30.34F

...WESTERN AND NORTH CENTRAL NEBRASKA...

CITY           SKY/WX    TMP DP  RH WIND       PRES   REMARKS
VALENTINE      SUNNY     73  36  25 N5        30.30F
AINSWORTH      SUNNY     70  38  31 N9        30.30F
ONEILL         SUNNY     71  46  40 N12G18    30.28F
BROKEN BOW     SUNNY     76  36  23 N10G16    30.28F
IMPERIAL       PTSUNNY   73  36  25 VRB6      30.32F
NORTH PLATTE   SUNNY     75  39  27 MISG      30.29F
MCCOOK         SUNNY     77  37  23 NE7       30.30F

...EASTERN NEBRASKA...

CITY           SKY/WX    TMP DP  RH WIND       PRES   REMARKS
NORFOLK        MOSUNNY   71  46  40 NW16G25   30.23F
SO SIOUX CITY  MOSUNNY   72  49  44 NW16G25   30.21F
TEKAMAH        MOSUNNY   73  47  39 N17G23    30.21F
COLUMBUS       SUNNY     72  45  37 N16G23    30.25F
ALBION         SUNNY     72  41  32 NW14      30.26F
OMAHA EPPLEY   MOSUNNY   72  47  40 N17G25    30.20F
OFFUTT AFB     MOSUNNY   71  50  48 N13       30.20F
MILLARD        MOSUNNY   71  48  43 N8        30.21S
LINCOLN        SUNNY     74  45  35 N21       30.22F
NEBRASKA CITY    N/A     72  36  27 N14G22    30.20S
BEATRICE       SUNNY     75  45  34 N17G24    30.22S
FALLS CITY     SUNNY     75  46  35 N17G23    30.18F

...NORTHERN KANSAS...

CITY           SKY/WX    TMP DP  RH WIND       PRES   REMARKS
GOODLAND       CLOUDY    73  37  27 E8        30.33F
HILL CITY      SUNNY     79  37  22 NE10      30.28F
NORTON         CLEAR     79  28  15 N7        30.28F
SMITH CENTER   SUNNY     77  37  24 NW12G18   30.25F
BELOIT         SUNNY     79  36  21 N8G17     30.22F
HAYS           SUNNY     77  43  29 NE8G18    30.26F
RUSSELL        SUNNY     79  43  27 N12       30.23F
CONCORDIA      SUNNY     77  42  28 N16       30.22F
SALINA         SUNNY     79  45  29 N10       30.22F
TOPEKA         SUNNY     78  47  33 N17       30.17F



USA.gov is the U.S. government's official web portal to all federal, state and local government web resources and services.